MUOS-1

Last updated on June 27, 2019, 3:44 a.m. UTC

1 38093U 12009A   19177.10139378  .00000070  00000-0  00000+0 0  9998
2 38093   2.6407 355.7104 0055915 176.0867 321.6172  1.00271288 26907
UTC
Height (km)
Latitude
Longitude
Inclination
Orbital Period
UTC large
Height (km)
Speed (km/s)
/
Latitude / Longitude
Inclination (degrees)
Orbital Period (minutes)
Azimuth
Elevation
Range (km)
Doppler Factor
iOS Compass Heading
iOS Angle

Next 30 passes for location: Hong Kong

Rise time Rise Azimuth (degrees) Set time Set Azimuth (degrees) Duration Max altitude (degrees)

No matching passes for this satellites